Location: Goettingen
(51.5300°N, 9.9433°E)
Time: 05:50:42
(UTC+01:00)

ISS - Pass Details

Date: 06 December 2019
Orbit: 411 x 421 km, 51.6° (Epoch: 15 December)

Event Time Altitude Azimuth Distance (km) Brightness Sun altitude
Rises 18:23:43 0° 284° (WNW) 2,361 1.2 -19.3°
Reaches altitude 10° 18:25:52 10° 277° (W) 1,497 0.1 -19.7°
Maximum altitude 18:29:04 42° 205° (SSW) 614 -2.7 -20.1°
Enters shadow 18:29:48 35° 170° (S) 690 -2.7 -20.3°
